Location: Wellington
(41.3000°S, 174.7830°E)
Time: 17:05:22
(UTC+13:00)

Lacrosse 5 - Pass Details

Date: 24 January 2019
Orbit: 715 x 724 km, 57.0° (Epoch: 16 October)

Event Time Altitude Azimuth Distance (km) Brightness Sun altitude
Rises 22:52:15 0° 240° (WSW) 3,156 6.5 -19.0°
Reaches altitude 10° 22:55:23 10° 259° (W) 2,225 5.1 -19.3°
Maximum altitude 22:58:40 17° 299° (WNW) 1,769 4.0 -19.7°
Enters shadow 23:01:13 12° 332° (NNW) 2,046 4.0 -20.0°
